This is the latest recevied weather packets stored in our database for station/object KN6RO-14. If no packets are shown the sender has not sent any weather packets the latest 10 day(s).
| Time | Temp. | Humidity | Pressure | Rain* | Wind** | Luminosity | Snow |
|---|---|---|---|---|---|---|---|
| 1777638259 | 12.78° C | 61% | 1013.5 hPa | 0 mm | - | - | - |
| 1777636459 | 13.33° C | 54% | 1013 hPa | 0 mm | - | - | - |
| 1777634659 | 13.89° C | 52% | 1012.5 hPa | 0 mm | - | - | - |
| 1777632859 | 13.89° C | 52% | 1012.1 hPa | 0 mm | - | - | - |
| 1777631059 | 13.89° C | 51% | 1011.9 hPa | 0 mm | - | - | - |
| 1777629259 | 13.89° C | 51% | 1012.2 hPa | 0 mm | - | - | - |
| 1777627459 | 14.44° C | 51% | 1012.2 hPa | 0 mm | - | - | - |
| 1777625660 | 13.89° C | 51% | 1012.2 hPa | 0 mm | - | - | - |
| 1777623860 | 13.89° C | 49% | 1012.1 hPa | 0 mm | - | - | - |
| 1777622060 | 13.33° C | 53% | 1011.9 hPa | 0 mm | - | - | - |
| 1777620260 | 13.33° C | 55% | 1012.3 hPa | 0 mm | - | - | - |
| 1777618460 | 13.89° C | 54% | 1011.8 hPa | 0 mm | - | - | - |
| 1777616660 | 13.89° C | 44% | 1011.8 hPa | 0 mm | - | - | - |
| 1777614860 | 15° C | 37% | 1011.5 hPa | 0 mm | - | - | - |
| 1777613060 | 14.44° C | 38% | 1011.7 hPa | 0 mm | - | - | - |
| 1777611260 | 14.44° C | 41% | 1011.7 hPa | 0 mm | - | - | - |
| 1777609460 | 13.89° C | 42% | 1011.8 hPa | 0 mm | - | - | - |
| 1777607660 | 13.89° C | 46% | 1011.9 hPa | 0 mm | - | - | - |
| 1777605860 | 13.89° C | 50% | 1011.7 hPa | 0 mm | - | - | - |
| 1777604060 | 14.44° C | 53% | 1012.1 hPa | 0 mm | - | - | - |
| 1777602260 | 13.89° C | 55% | 1011.8 hPa | 0 mm | - | - | - |
| 1777600460 | 13.89° C | 57% | 1011.6 hPa | 0 mm | - | - | - |
| 1777598699 | 14.44° C | 59% | 1011.3 hPa | 0 mm | - | - | - |
| 1777598660 | 14.44° C | 59% | 1011.3 hPa | 0 mm | - | - | - |
| 1777596860 | 14.44° C | 60% | 1011.3 hPa | 0 mm | - | - | - |
* Rain latest hour (hover to see other rain measurements)
** Current wind speed in m/s (hover to see current wind gust speed)